Location: Balmoral
(33.0667°S, 151.5833°E)
Time: 03:44:55
(UTC+00:00)

Cosmos 2333 Rocket - Pass Details

Date: 18 September 2020
Orbit: 839 x 862 km, 70.8° (Epoch: 23 October)

Event Time Altitude Azimuth Distance (km) Brightness Sun altitude
Rises 18:27:33 0° 208° (SSW) 3,439 5.2 -17.5°
Reaches altitude 10° 18:30:06 10° 214° (SSW) 2,500 4.4 -17.0°
Maximum altitude 18:35:34 47° 285° (WNW) 1,132 2.4 -15.8°
Drops below altitude 10° 18:41:00 10° 357° (N) 2,486 4.5 -14.7°
Sets 18:43:32 0° 3° (N) 3,417 5.3 -14.2°
